Dewpoint
28 25 30 29 29 31 31 30 26 25 24 26 26 26 26 26 32 38 39 39 39 38 38 37 36 35 35 36 36 36 36 36 36 36 36 36 36 36 36 36 35 34 34 34
27 27 26 26 28 31 30 30 30 29 29 31 31 29 31 32 30 35 38 39 39 38 38 37 36 35 35 35 36 36 35 35 36 36 36 36 35 35 36 36 36 36 36 36
25 24 24 23 25 27 28 31 31 29 30 31 31 32 33 34 33 32 37 39 39 38 38 37 36 35 35 35 35 35 35 35 35 36 36 36 35 34 35 35 34 34 35 35
25 23 18 20 23 27 27 27 30 31 30 31 31 32 32 29 28 31 36 38 39 38 37 37 36 35 35 35 34 34 34 35 35 35 35 35 34 33 33 32 31 30 30 30
24 22 21 21 21 23 23 20 26 27 29 30 31 30 30 30 29 29 34 37 38 38 37 36 36 35 35 34 34 34 34 34 35 35 35 34 33 33 31 29 27 26 27 27
25 21 16 18 28 29 28 23 28 29 30 30 29 27 28 30 31 30 31 36 37 37 36 36 35 35 34 34 34 33 34 35 35 35 34 34 33 32 29 27 26 27 27 27
25 23 23 23 27 30 22 19 33 35 35 32 30 29 30 35 36 36 35 35 34 35 35 35 35 35 34 34 34 34 35 35 35 35 34 33 32 31 28 27 26 25 25 24
27 24 21 27 28 24 27 33 35 36 35 32 32 32 34 35 35 35 34 34 34 34 34 35 35 35 34 34 34 35 35 35 35 35 34 33 31 29 28 27 25 22 21 21
26 24 26 29 28 31 33 33 35 36 37 33 33 34 34 33 33 33 33 33 33 33 33 34 35 35 34 34 34 34 34 34 34 34 33 32 30 29 27 26 25 22 19 17
27 25 27 27 28 30 32 34 37 37 38 34 33 35 35 33 32 32 32 31 32 32 32 33 34 34 34 33 34 34 34 34 34 33 32 31 30 29 27 25 23 19 15 12
26 26 26 28 28 28 29 33 37 37 38 38 39 37 36 35 33 32 32 31 31 31 31 32 33 33 33 34 34 34 34 33 33 32 32 30 30 28 25 22 20 16 14 11
25 26 26 25 27 30 30 33 37 36 35 36 37 38 38 37 35 33 32 31 31 31 31 31 32 33 33 35 35 34 33 33 32 32 32 31 30 28 28 26 24 24 20 13
28 30 29 29 36 35 32 34 36 36 36 36 36 37 37 37 37 37 34 33 32 31 32 32 32 32 33 34 35 34 33 33 32 32 31 30 27 23 21 19 24 22 22 22
31 33 33 34 34 36 36 37 36 35 35 35 35 35 36 37 37 37 36 36 35 34 33 32 32 32 34 35 35 34 34 33 32 32 30 29 26 22 18 16 14 20 26 26
30 34 35 35 36 35 35 35 34 34 34 34 34 34 34 34 34 34 35 36 35 34 34 33 33 33 34 35 35 34 33 33 32 31 29 28 25 22 19 17 16 15 16 20
35 35 35 35 35 35 34 34 34 34 33 33 34 34 33 33 33 33 34 35 35 35 34 34 33 34 34 34 34 34 33 33 33 31 29 27 23 21 18 17 16 16 15 14
34 33 34 34 34 34 34 33 33 33 33 33 32 30 29 29 29 30 30 32 33 34 35 35 34 34 35 34 34 34 33 33 34 30 28 26 24 21 17 15 15 15 15 15
34 34 34 34 34 33 33 33 34 34 33 31 29 28 27 27 28 28 29 29 30 32 32 33 34 34 34 35 34 34 33 33 33 33 29 27 24 22 19 16 15 14 14 14
33 33 34 34 34 34 34 34 34 33 33 34 34 32 29 29 29 27 27 29 29 30 30 30 31 33 33 34 34 34 34 33 33 33 33 30 30 28 23 22 22 17 15 13
33 33 33 32 32 32 30 29 28 26 25 26 29 27 26 28 28 29 30 28 29 30 33 32 30 31 32 33 35 33 33 33 33 32 31 31 30 29 28 27 27 26 23 17
34 34 34 33 31 30 29 28 28 27 25 24 23 23 23 23 23 27 29 29 25 27 31 32 32 31 32 33 34 34 33 33 32 32 31 31 30 30 29 28 28 28 26 25
33 32 32 32 31 28 21 24 26 26 25 24 25 25 24 23 24 27 25 24 25 27 26 27 30 32 33 33 33 33 32 32 32 31 31 30 30 29 29 29 28 28 27 27
26 26 27 27 26 24 16 16 22 22 23 24 23 22 21 21 23 23 22 25 25 26 24 24 27 28 30 32 32 31 31 31 31 30 30 30 30 29 29 29 29 29 28 28
21 19 18 21 22 19 12 11 17 19 19 19 20 20 21 19 20 24 23 23 25 26 25 25 26 27 26 26 28 29 30 30 30 30 29 30 29 29 29 29 29 29 29 29
20 20 18 15 14 12 12 14 15 16 17 17 17 19 21 21 19 20 21 20 21 23 22 23 25 25 23 23 23 25 26 28 28 29 29 28 28 28 28 28 28 28 28 27
20 19 17 14 13 12 11 12 10 13 16 15 16 18 20 20 17 19 19 19 18 20 19 20 21 23 23 23 23 22 22 23 24 24 26 27 28 27 27 26 26 26 26 26
19 19 16 14 13 13 13 12 11 10 15 17 15 16 20 20 16 17 18 17 16 17 17 18 19 20 21 22 21 21 20 20 22 23 23 23 24 25 25 25 25 24 24 24
Wind_Speed
8 4 6 7 12 22 24 27 20 12 29 27 31 25 12 9 9 13 18 19 20 19 18 16 15 14 12 11 11 10 10 9 8 7 6 6 6 5 5 6 6 6 7 8
6 9 11 13 15 17 27 30 30 34 37 29 24 16 20 18 11 17 19 19 22 20 19 19 19 18 15 14 13 12 11 11 10 7 7 6 6 6 7 7 7 7 7 8
5 2 3 8 23 27 18 16 27 28 37 18 19 18 23 24 18 23 24 23 22 24 23 20 21 20 19 17 14 13 12 11 10 9 7 7 7 7 8 8 8 8 8 9
3 3 10 7 2 14 24 26 23 20 30 22 23 22 21 16 16 18 18 20 20 18 18 18 16 16 14 15 15 14 12 12 10 10 9 8 8 9 9 8 8 7 8 8
5 8 9 16 3 6 10 16 20 31 28 25 15 10 24 16 17 18 19 21 21 19 16 16 18 17 18 16 15 13 12 12 11 10 10 10 10 10 9 10 8 7 6 8
6 5 6 5 1 5 3 10 1 6 11 14 4 11 15 10 17 17 13 13 14 14 12 16 16 18 19 17 15 15 14 13 12 12 12 12 11 11 7 7 9 8 8 6
9 8 8 12 8 7 3 3 3 4 8 7 10 12 4 4 3 5 7 10 12 15 16 16 17 18 18 17 18 14 13 13 12 12 13 13 12 9 10 10 10 8 7 5
7 7 13 10 8 9 5 2 4 5 5 5 8 6 3 1 3 6 10 10 11 15 14 13 16 17 16 17 13 13 13 13 12 13 11 12 13 12 11 11 10 9 8 6
14 11 3 13 5 13 3 3 3 4 3 2 5 4 2 2 4 5 8 10 9 13 13 12 14 15 16 13 14 14 14 13 13 13 12 13 14 13 12 10 10 10 9 8
3 9 14 10 10 8 9 9 4 3 2 5 4 4 2 5 7 8 9 11 10 13 13 13 13 14 12 14 14 15 14 13 13 14 13 13 12 12 12 13 12 11 10 10
8 10 7 8 13 13 10 10 6 3 3 4 5 4 5 5 6 7 9 9 12 13 13 13 14 13 12 14 15 15 13 13 13 13 15 13 12 13 13 12 13 12 13 11
7 7 6 8 4 5 11 12 11 8 5 3 4 6 4 2 4 7 9 8 10 10 11 11 13 13 14 15 16 15 14 14 14 13 12 12 12 12 14 14 14 17 13 10
9 9 10 8 4 1 4 7 6 6 3 4 4 3 3 3 2 4 6 8 11 13 12 11 12 13 14 16 16 16 15 14 13 14 14 14 13 14 14 12 15 15 15 15
12 9 9 5 3 1 4 8 11 8 6 5 3 4 4 3 3 3 1 4 7 9 10 11 13 14 15 16 17 16 16 17 15 14 14 14 15 15 14 14 15 13 12 14
15 8 7 2 3 3 6 8 10 8 6 5 6 5 5 4 4 5 6 4 3 6 8 10 12 13 14 17 18 18 16 14 14 13 13 14 14 14 14 14 15 13 9 10
10 9 7 3 4 4 6 5 7 6 4 4 4 4 3 2 3 5 6 5 3 6 7 10 12 12 15 17 17 15 16 16 15 14 13 14 14 14 14 15 15 15 15 17
7 9 9 6 7 6 5 5 6 7 6 4 2 3 4 5 4 5 7 7 6 8 8 7 11 10 14 16 17 14 14 14 17 13 15 15 15 16 15 15 16 15 17 15
3 6 4 3 11 11 8 7 7 5 3 3 2 2 4 5 5 7 7 9 8 7 6 8 8 8 10 13 15 13 13 14 15 15 14 15 16 15 15 16 15 16 15 14
6 6 7 7 8 10 10 8 6 6 5 5 5 5 4 5 6 6 7 7 7 7 9 11 11 6 8 11 13 13 12 13 14 14 14 15 15 15 16 16 17 17 16 15
6 7 8 11 11 10 9 7 7 7 7 6 5 6 6 7 8 8 7 6 7 5 9 10 9 7 5 6 11 12 13 14 14 13 13 14 15 15 16 18 17 16 16 17
5 6 8 9 10 10 9 7 6 6 5 6 6 5 5 6 8 6 6 4 9 10 9 10 9 8 7 5 5 9 11 12 12 13 13 14 14 15 15 16 16 16 16 16
6 7 7 7 7 6 5 5 5 5 4 5 5 6 6 7 8 4 5 7 9 11 10 9 8 10 8 7 5 6 7 10 11 11 12 12 13 13 14 14 15 15 15 15
3 3 3 3 3 3 3 4 4 4 4 4 3 5 5 4 3 4 5 10 10 11 9 9 12 12 10 6 6 6 7 7 9 10 10 11 11 12 12 13 13 13 13 14
2 1 1 2 2 2 2 1 2 3 2 2 2 2 3 5 4 1 5 7 9 9 8 9 11 11 10 8 6 7 7 7 8 8 9 10 10 10 11 11 12 11 12 14
3 2 2 1 2 2 2 1 1 2 2 2 2 1 1 0 2 4 6 7 8 8 8 10 11 11 9 8 8 7 7 8 8 8 8 8 9 9 9 10 10 10 11 11
5 7 6 5 5 4 3 3 3 3 3 4 3 2 2 2 3 4 4 6 6 7 7 8 9 9 8 8 8 8 8 8 8 9 10 8 9 9 10 11 12 12 11 10
7 6 6 8 8 8 7 6 6 7 5 5 5 4 3 3 3 4 5 6 7 8 8 8 8 9 9 9 9 9 9 8 7 8 8 10 10 11 11 11 12 12 12 13
Wind_Direction
227 173 180 200 208 206 214 229 228 250 245 246 254 270 273 279 248 205 194 198 196 194 193 192 189 190 185 178 178 172 167 162 171 157 150 145 140 137 121 116 111 104 94 94
262 248 237 243 236 219 218 226 239 250 267 260 262 249 265 271 256 239 215 211 204 198 195 198 195 193 187 184 182 177 175 173 162 162 152 156 142 138 132 123 111 106 99 105
241 200 222 257 232 224 222 223 221 237 243 259 266 247 251 263 253 236 221 207 208 204 202 199 198 190 189 183 173 180 175 171 165 164 162 158 147 144 135 125 120 114 110 104
197 175 248 242 191 221 223 241 224 243 257 253 254 253 249 247 242 235 216 206 210 208 203 201 192 186 173 173 178 179 176 174 169 168 165 157 156 153 139 130 131 129 118 112
202 211 302 302 257 185 202 270 230 229 249 263 264 281 265 243 231 239 221 205 205 199 198 188 187 175 169 172 175 176 180 180 178 173 169 169 167 157 146 142 142 143 141 135
165 204 241 241 183 173 140 291 256 220 264 277 221 240 260 236 223 232 226 198 186 181 174 173 172 163 167 175 177 187 186 186 181 178 172 173 164 159 153 155 154 145 141 132
205 232 274 249 173 135 221 256 293 267 283 273 218 227 293 321 210 205 188 175 155 160 171 172 159 159 171 173 190 184 175 175 177 174 171 169 160 155 158 158 152 156 156 156
187 224 268 172 110 187 209 273 277 290 293 290 239 281 296 353 136 143 140 139 147 152 158 159 160 164 175 188 181 173 172 174 175 171 166 164 161 161 163 167 171 181 184 192
187 208 223 193 202 210 185 275 288 297 320 215 193 213 201 161 159 150 147 145 148 151 151 161 168 172 180 188 171 170 173 178 176 171 167 166 166 166 181 186 193 198 201 208
181 240 234 227 232 243 221 236 258 277 280 175 200 206 197 158 159 157 160 163 158 157 165 174 183 185 186 170 170 171 179 183 177 172 168 170 171 176 190 194 199 205 209 220
261 276 294 261 234 243 245 223 218 194 186 182 156 158 166 166 179 183 175 173 178 180 184 191 185 188 179 172 170 182 182 184 181 181 179 179 185 191 198 207 200 207 220 220
242 305 260 248 237 225 219 210 202 185 164 131 132 140 144 170 212 202 199 195 199 203 198 196 191 191 185 177 178 183 189 186 185 185 181 187 197 211 221 223 223 231 233 224
274 312 273 275 311 174 204 199 181 175 162 143 71 74 83 103 124 196 202 206 210 215 215 201 200 200 188 183 185 192 195 190 188 187 189 194 201 205 218 229 232 230 233 234
304 307 274 230 265 168 134 134 127 112 95 94 86 61 60 60 48 39 316 253 231 221 216 210 207 209 194 187 190 196 195 194 193 192 196 196 200 208 213 219 224 229 234 227
309 273 264 311 115 107 115 126 124 125 120 98 70 73 54 46 31 2 347 335 242 226 229 215 213 217 194 191 195 198 198 198 194 193 200 205 207 211 215 220 227 234 228 234
308 302 273 212 164 150 128 122 138 134 120 106 90 65 35 9 340 335 339 343 293 282 264 234 231 220 196 194 197 201 204 204 195 196 203 208 210 215 219 222 224 228 228 232
284 270 245 219 182 170 145 127 140 144 132 112 74 8 357 350 348 359 347 343 317 292 290 267 253 232 203 197 197 202 202 204 207 201 205 207 212 217 220 222 224 227 233 226
242 294 310 262 178 155 134 119 115 110 92 97 70 32 6 358 347 340 342 335 332 326 332 326 293 262 227 204 200 202 200 201 206 210 206 209 215 217 219 224 227 231 238 232
60 63 60 76 115 122 119 112 97 91 67 42 37 26 18 16 359 349 355 4 11 359 351 338 340 306 246 227 210 205 204 204 208 216 212 214 220 218 221 223 229 235 235 233
80 79 82 81 75 90 93 81 88 80 51 48 49 44 29 18 7 5 10 60 33 351 338 345 348 349 315 256 226 215 215 216 218 219 218 215 216 219 220 222 225 228 232 234
83 83 82 86 86 79 77 71 79 68 48 49 52 40 21 16 11 11 33 40 3 349 349 355 357 346 344 328 267 227 223 224 223 223 221 223 225 227 227 227 228 229 228 230
89 96 98 102 102 98 76 70 74 74 68 62 54 40 29 22 18 42 80 37 342 351 353 353 350 342 336 332 311 275 252 235 232 229 230 229 231 232 234 232 232 232 232 231
67 92 108 109 107 111 95 62 64 69 68 59 36 36 24 3 342 29 13 348 346 349 356 354 352 353 343 345 327 298 281 267 257 250 245 241 240 241 242 241 240 237 236 235
335 41 98 86 105 80 10 10 34 35 32 34 44 40 22 16 30 45 339 329 343 357 356 351 354 358 4 359 346 335 324 303 284 275 268 261 253 250 249 250 250 246 242 246
257 246 254 284 290 306 293 229 327 306 315 323 325 332 34 323 260 306 330 335 345 355 354 352 356 359 359 354 349 338 331 327 315 301 294 287 279 270 263 259 258 259 255 250
248 258 264 254 253 258 249 213 253 257 261 277 274 217 233 285 303 315 330 338 342 346 347 347 350 349 347 343 342 339 334 324 317 315 311 307 296 284 279 279 273 267 266 263
257 256 263 267 257 243 233 227 233 251 233 240 263 269 232 289 310 320 329 334 336 336 334 336 340 339 332 328 328 325 322 318 316 313 308 305 301 294 285 277 275 270 267 266